Tracking 22459 objects as of 3-Mar-2021
HD Live streaming from Space Station
objects crossing your sky now

COSMOS 1375 DEB

Track COSMOS 1375 DEB now!
10-day predictions


NORAD ID: 16375
Int'l Code: 1982-055P
Perigee: 952.6 km
Apogee: 988.6 km
Inclination: 65.8 °
Period: 104.3 minutes
Semi major axis: 7341 km
RCS: 0.132 m2 (medium)
Launch date: June 6, 1982
Source: Commonwealth of Independent States (former USSR) (CIS)
Launch site: PLESETSK MISSILE AND SPACE COMPLEX (PKMTR)

Note: This is SATELLITE DEBRIS
aabbcc
Your satellite tracking list
Your tracking list is empty




NASA's NSSDC Master Catalog

Two Line Element Set (TLE):
1 16375U 82055P   21061.92859664 -.00000058  00000-0  23211-4 0  9998
2 16375  65.8319 246.8507 0024503   2.5121 168.1483 13.80115237781348
Source of the keplerian elements: AFSPC